496  
SXUS52 KCHS 150325  
OSOCHS  
 
MARINE OBSERVATIONS  
NATIONAL WEATHER SERVICE CHARLESTON SC  
1100 PM EDT SUN AUG 14 2022  
   
..DOWNTOWN CHARLESTON AND HARBOR
 
 
 
CITY SKY/WX TMP DP RH WIND PRES REMARKS  
WATERFRONT PRK N/A 79 67 66 VRB3 29.83R  
   
..LAKE MOULTRIE
 
 
 
CITY SKY/WX TMP DP RH WIND PRES REMARKS  
PINOPOLIS N/A 75 66 73 VRB2 29.91S  
   
..LAKE AND SUPPLEMENTAL COASTAL OBSERVATIONS
 
 
 
STATION/POSITION TIME TEMP WIND PRES WAVE SWELL  
AIR SEA DIR/SP/G HT/PER HT/PER/DIR  
(UTC) (F) (DEG/KT/KT) (MB) (FT/S) (FT/S/D)  
CHRLSTN HARBOR 0236 79 84 210/ 4/ 5 1014.0R  
FORT PULASKI 0236 79 85 160/ 3/ 4 1015.7R  
SAPELO ISLAND 0300 73 150/ 2 1015.0  
WINYAH BAY 0245 72 320/ 1 1015.0S  
LAKE MURRAY 0320 82 200/ 8/ 9 N/A  
ACE BASIN NERRS NOT AVBL  
 
   
..C-MAN AND BUOY OBSERVATIONS
 
 
 
STATION/POSITION TIME TEMP WIND PRES WAVE SWELL  
AIR SEA DIR/SP/G HT/PER HT/PER/DIR  
(UTC) (F) (DEG/KT/KT) (MB) (FT/S) (FT/S/D)  
BUOY 41004 0310 81 83 50/ 6/ 8 1015.1  
BUOY 41008 0250 81 83 140/ 6/ 8 1014.6R 3/ 6 3/ 60/ 6  
FOLLY BEACH CMAN 0300 80 170/ 6/ 8 1015.7S  
PRITCHARDS ISLAN NOT AVBL  
CHAS PILOT BUOY 0208 79 79 50/ 2/ 4 1015.1R  
CHAS PILOT WAVE 0217 79 N/A 3/ 6  
CAPERS NS BUOY NOT AVBL  
CAPERS NS WAVE NOT AVBL  
FRIPP NS BUOY NOT AVBL  
5E ST. MARYS GA 0230 80 82 N/A 3/ 5  
 
 
STATION/POSITION TIME TEMP WIND PRES WAVE SWELL  
AIR SEA DIR/SP/G HT/PER HT/PER/DIR  
(UTC) (F) (DEG/KT/KT) (MB) (FT/S) (FT/S/D)  
FRYING PAN BUOY 0310 80 81 50/ 10/ 12 1014.6  
BUOY 41025 0310 83 30/ 12/ 16 1014.2  
CAPE LOOKOUT NC 0300 77 30/ 9/ 11 1015.4R  
BUOY 41002 0310 83 84 180/ 4/ 6 1011.3  
BUOY 41010 0310 83 86 310/ 4/ 8 1014.5  
ST AUGUSTINE FL 0300 80 80 70/ 6/ 7 1015.7F  
 

 
 
 
CLICK HERE TO GO TO PREVIOUS BULLETINS.

The Nexlab SC Page
The Nexlab GA Page Main Text Page